STARLINK-37189, 68603

Orbit data source: Space-Track

STARLINK-37189, 68603 is a payload satellite owned by SpaceX/Seattle (US) in SSO that was launched on Sun, 05 Apr 2026 UTC via an FALCON 9 launch vehicle from the Air Force Western Test Range (AFWTR). Payload-class satellites include a variety of spacecraft equipped with specific instruments for various scientific and technological missions. These include communications satellites like Starlink; space stations such as the ISS; scientific satellites like the Hubble; Earth observation satellites from companies like Planet Labs, Umbra, and HawkEye 360; GPS; miniature CubeSats for education and research; and military/defense satellites.

Loading next visibility...
Identifier
68603, 2026-073B
Orbit
SSO
Country
Flag of USUS
Related business
Manufacturer
SpaceX/Seattle
Mission
Operational spacecraft
Bus & Motor
STARLINK V2MO, Unknown motor
Mass
575 kg wet, ~530 kg dry
Launch date (UTC)
2026-04-05 (3 months ago)
Launch vehicle
FALCON 9
Launch site
Air Force Western Test Range (AFWTR)
Object type
Payload
Rocket body
Debris
Shape & HBR
Unknown shape, 2.2 m
Radar Cross Section
Large (>1 m²)

Expand to show TLE details & history
Last TLE update: 1 day ago

TLE from 1 day ago
0 STARLINK-37189
1 68603U 26073B   26170.48695757  .00004678  00000-0  14716-3 0  9995
2 68603  97.2858   9.7799 0001145 102.1620 257.9751 15.33440637 11484
Epoch: 2026-06-19T11:41Z
TLE epoch observation values (Epoch: 2026-06-19T11:41:13.134Z)
Latitude
-0°
Longitude
-73.24006°
Altitude
468.832 km
Speed
7.632 km/s
True Right ascension
00h 39m 07s
True Declination
0° 00' 00"
Sunlit
Object was in daylight at epoch
Visualization orbit readout
Latitude
Unknown
Longitude
Unknown
Altitude
Unknown
Speed
Unknown
Apparent Right ascension
Unknown
Apparent Declination
Unknown
Sunlit
N/A
Visualization observer readout
Local Sidereal Time
07:16:54
Azimuth
Unknown
Elevation
Unknown
Doppler factor
Unknown
Orbital elements
Apogee altitude
463.282 km
Perigee altitude
461.716 km
Semi-major axis
6,840.636 km
Eccentricity
0.00011
Inclination
97.2858°
RAAN
9.7799°
Arg. of periapsis
102.162°
True anomaly
257.96227°
Mean anomaly
257.9751°
Eccentric anomaly
257.96868°
Mean motion
3.83618 °/min
Orbital period
93.84 mins
BSTAR
0.00014716
Loading maneuver chart data...
Computing Atmospheric mass density...
Loading historical data...
Loading historical data...
Loading historical data...
Loading historical data...
Loading historical data...
Loading historical data...
Loading historical data...

Documentation

Showing up to 5 results
|